Find Gonets-M No. 13L

NORAD ID: 38734 Int'l Des: 2012-041 Owner: GONETS Country: RU operational
LEOCIRCULARPOLAR

Live-Position

3D-Globus wird geladen...

Über Gonets-M No. 13L

Beschreibung wird geladen...

Nächste Überflüge

Passes for default location (London). Set your location on the main map for personalized predictions.

Höhenverlauf

Loading altitude history...

Zweizeiliger Elementsatz

1 38734U 12041B 26107.31253985 .00000054 00000-0 30803-3 0 9991
2 38734 82.4691 102.9440 0016148 190.4551 169.6196 12.44900577623099
Epoch: 17. Apr. 2026 • Age: 11 hours

Aktueller Status

Höhe 1494.0 km
Geschwindigkeit 7.12 km/s
Subsatellitenpunkt -47.12°S, 169.47°E
Startdatum 28. Juli 2012
Alter 13.7 years
Typ other

Technische Details

Klassifizierung Payload
Masse 280.00 kg
Trockenmasse 280.00 kg
Gesamtmasse 280.00 kg
Länge 1.60 m
Durchmesser 0.80 m
Spannweite 7.00 m
Form Cyl + Ant
Hersteller RESH
Bus-Typ Strela-3
Phasenstatus In Orbit
Besitzer/Staat GONETS/RU

Most Searched